Powrót do katalogu

STARLINK-6082

AktywnyŁącznośćVLEO
NORAD 56110·PAYLOAD·🇺🇸 United States

Wystrzelony Mar 29, 2023 z Cape Canaveral Space Force Station

Loading…

Następne Przeloty (najbliższe 24 godziny)

TLE

ŚwieżeSource: CelesTrak SupGP

Epoka: Sep 14, 2026, 21:23 UTC

1 56110C 23046T   26257.89145833 -.00028977  00000+0 -10496-2 0  2574
2 56110  43.0025 173.2229 0000997 264.6230 154.9659 15.27590539    19

Śledź STARLINK-6082 w czasie rzeczywistym z AllMySat

Download on the App Store